www.pogodaiklimat.ru

Погода и климат >> Архив погоды >> Канада >> Онтарио >> Лондон 2


ПОГОДА в Лондоне 2

  • Прогноз погоды в Лондоне 2
  • Монитор погоды в Лондоне 2

АРХИВ ПОГОДЫ в Лондоне 2

Время (UTC), дата Ветер
(напр.,м/с)
 
Видим.   Явления Облачность Т
(С)
Тd
(С)
f
(%)
Тe
(С)
Тes
(С)
Комфортность P
(гПа)
Po
(гПа)
Тmin
(С)
Tmax
(С)
R
(мм)
R24
(мм)
S
(см)
09 19.03 З 2 24 км 3/0
[]
-2.2 -5.0 81 -6 -6 1027.8 993.3
12 19.03 С 1 16 км 4/0
[]
-3.3 -4.8 89 -4 -4 1029.1 994.4 -4.3 +3.6
15 19.03 З 3 24 км 4/0
[]
+3.0 -5.0 56 -1 +5 1030.1 995.5
18 19.03 СЗ 3 24 км 4/4 600 м
[]
+5.6 -6.7 41 +3 +10 1029.6 995.2 -4.3 +5.8
21 19.03 ЮЗ 4 24 км 6/6 1500 м
[]
+4.8 -5.9 46 +2 +3 1028.0 993.6
00 20.03 Ю 3 24 км 1/1 1500 м
[]
+1.1 -3.5 71 -3 -3 1027.7 993.1 -4.3 +6.6
03 20.03 Ю 2 24 км ясно -1.0 -4.3 78 -5 -5 1026.9 992.5
06 20.03 Ю 3 24 км ясно -0.7 -4.1 78 -5 -5 1025.8 991.5 -4.3 +6.6
09 20.03 Ю 2 24 км 1/0
[]
-2.1 -4.1 86 -6 -6 1024.6 990.3
12 20.03 Ю 3 16 км 1/0
[]
-1.5 -3.7 85 -6 -6 1024.1 989.7 -2.6 +6.6
15 20.03 Ю 5 24 км 3/0
[]
+5.7 -1.4 60 +2 +5 1023.0 988.8
18 20.03 Ю 6 24 км 9/0
[]
+7.0 -2.4 51 +3 +5 1021.1 987.0 -2.6 +7.5
21 20.03 Ю 5 24 км 10/10 1500 м
[]
+6.3 -2.7 53 +3 +3 1019.2 985.1
00 21.03 Ю 3 12 км 10/10 200 м
[]
+2.1 +1.0 92 -2 -2 1019.3 985.1 -2.6 +7.9
03 21.03 ЮВ 4 2400 м 10/10 50 м
[]
+0.6 +0.3 98 -5 -5 1018.2 984.2
06 21.03 ЮВ 4 2400 м 10/10 50 м
[]
+0.8 +0.5 98 -5 -5 1015.9 982.0 -2.6 +7.9
09 21.03 ЮВ 3 3200 м 10/10 300 м
[]
+1.6 +1.4 99 -3 -3 1014.0 980.2
12 21.03 В 3 4800 м 10/10 300 м
[]
+1.8 +1.6 99 -3 -3 1013.3 979.4 +0.4 +7.9
15 21.03 ЮВ 2 8000 м 10/10 50 м
[]
+3.5 +2.9 96 +1 +1 1013.1 979.2
18 21.03 З 3 8000 м 10/10 100 м
[]
+4.9 +4.5 97 +2 +2 1011.9 978.1 +0.4 +5.0
21 21.03 СЗ 4 4000 м 10/10 50 м
[]
+4.0 +3.4 96 -1 -1 1010.6 976.8
00 22.03 СЗ 3 12 км 10/10 200 м
[]
+2.4 +1.4 93 -2 -2 1010.8 977.0 +0.8 +5.9
03 22.03 З 3 24 км 10/10 600 м
[]
+2.2 +0.4 88 -2 -2 1010.3 976.6
06 22.03 З 5 24 км 10/10 1000 м
[]
+2.2 -0.1 85 -3 -3 1008.5 974.9 +0.8 +5.9
09 22.03 З 4 24 км 10/10 600 м
[]
+1.4 -0.5 87 -3 -3 1006.4 972.8
12 22.03 СЗ 6 24 км 10/10 300 м
[]
+0.7 -2.6 79 -6 -6 1006.6 972.9 +0.6 +5.9
15 22.03 СЗ 9 24 км 9/9 600 м
[]
+1.3 -2.6 75 -6 -6 1007.2 973.5
18 22.03 СЗ 10 24 км 9/9 1000 м
[]
+2.0 -4.3 63 -5 -5 1009.3 975.5 +0.6 +3.0
21 22.03 СЗ 10 24 км 10/10 600 м
[]
-2.0 -7.1 68 -11 -11 1012.1 978.1
00 23.03 СЗ 10 24 км 10/10 600 м
[]
-2.5 -7.4 69 -11 -11 1015.2 981.0 -2.7 +3.0
03 23.03 СЗ 7 24 км 1/1 600 м
[]
-2.2 -8.8 61 -10 -10 1017.1 982.9
06 23.03 СЗ 7 24 км ясно -3.6 -10.1 61 -11 -11 1018.3 984.0 -3.6 +3.0
09 23.03 СЗ 6 24 км ясно -5.5 -10.6 67 -13 -13 1020.1 985.6
12 23.03 СЗ 5 24 км ясно -5.6 -10.3 69 -13 -13 1022.9 988.2 -6.1 +3.0
15 23.03 СЗ 5 24 км ясно -0.8 -9.2 53 -7 -2 1024.5 990.0
18 23.03 СЗ 5 24 км ясно +1.5 -7.7 50 -4 +3 1025.1 990.6 -6.1 +1.6
21 23.03 З 5 24 км ясно +2.8 -8.8 42 -2 +1 1025.1 990.6
00 24.03 З 2 24 км ясно +0.8 -7.9 52 -1 -1 1024.1 989.5 -6.1 +3.2
03 24.03 ЮЗ 4 24 км ясно -0.6 -4.9 73 -6 -6 1024.0 989.5
06 24.03 ЮЗ 3 24 км ясно -1.4 -5.9 71 -6 -6 1023.2 988.8 -6.1 +3.2
09 24.03 ЮЗ 3 24 км ясно -2.8 -6.2 77 -8 -8 1021.9 987.6
12 24.03 ЮЗ 3 24 км 10/0
[]
-2.2 -5.3 79 -7 -7 1022.0 987.6 -3.1 +3.2
15 24.03 ЮЗ 4 24 км 10/0
[]
+5.7 -2.5 56 +2 +5 1020.6 986.5
18 24.03 ЮЗ 6 24 км 9/9 1000 м
[]
+9.0 -0.2 52 +6 +6 1018.9 984.9 -3.1 +9.1
21 24.03 З 5 24 км 10/10 1000 м
[]
+10.5 +0.1 48 +8 +8 1017.3 983.4
00 25.03 С 4 24 км 9/0
[]
+4.9 -0.4 69 +1 +1 1018.7 984.6 -3.1 +10.7
03 25.03 С 3 24 км 4/0
[]
+1.3 -2.8 74 -2 -2 1020.2 986.2
06 25.03 С 4 24 км 4/0
[]
-0.9 -3.7 81 -6 -6 1020.9 986.9 -3.1 +10.7
09 25.03 С 4 24 км 9/9 1500 м
[]
-0.9 -8.9 55 -6 -6 1022.3 988.3
12 25.03 СВ 4 24 км ясно -2.8 -11.4 52 -8 -8 1023.8 989.5 -3.3 +10.7
15 25.03 СВ 4 24 км 3/3 1500 м
[]
+0.6 -11.3 40 -4 0 1024.8 990.4
18 25.03 С 5 24 км ясно +3.2 -13.1 29 -1 +7 1024.2 989.9 -3.3 +3.3
21 25.03 СЗ 5 24 км ясно +3.3 -12.1 31 -1 +2 1023.4 989.1
00 26.03 СЗ 4 24 км ясно -2.0 -9.8 55 -7 -7 1025.0 990.4 -3.3 +3.9
03 26.03 СЗ 2 24 км ясно -3.7 -12.4 51 -7 -7 1026.5 991.9

 

Местоположение метеостанции Лондон 2 (Онтарио, Канада): широта 43.03 долгота -81.15 высота над уровнем моря 278 м.

В архиве по умолчанию представлена погода в Лондоне 2 за последнюю неделю. Архивные данные за месяц целиком и за предыдущие месяцы, начиная с января 2011 года, Вы можете получить, выбрав интересующий диапазон дат из раскрывающегося списка и нажав кнопку "Ввод!".


*Определитесь, кто Вы:
робот инопланетянин человек

Внимание! Время в таблицах - всемирное. Для получения местного времени необходимо прибавить поправку, которая равна -5 ч.

Смотрите также архив погоды в соседних городах и на ближайших метеорологических станциях:

Погода в Лондоне (Онтарио, Канада) (1 км)
Погода в Дели (Онтарио, Канада) (52 км)
Погода в Брантфорде (Онтарио, Канада) (68 км)
Погода в Аэропорту Драйден (Онтарио, Канада) (74 км)
Погода в Ватерлоо (Онтарио, Канада) (78 км)
Погода в Риджтауне (Онтарио, Канада) (88 км)
Погода в Элоре (Онтарио, Канада) (91 км)
Погода в Сарнии (Онтарио, Канада) (94 км)
Погода в Годериче (Онтарио, Канада) (94 км)
Погода в Гвелфе (Онтарио, Канада) (95 км)

Пояснения к столбцам:

Ветер - указаны скорость ветра в м/с - средняя за 10 мин, порывы в срок и между сроками (в фигурных скобках) и направление, откуда дует ветер: С - северный, СВ - северо-восточный, В - восточный, ЮВ - юго-восточный, Ю - южный, ЮЗ - юго-западный, З - западный, СЗ - северо-западный.
Видимость - горизонтальная дальность видимости в метрах или километрах. При видимости от 1 до 10 км при отсутствии осадков обычно наблюдается дымка, при ухудшении видимости до 1 км и менее - туман. В сухую погоду видимость может ухудшаться дымом, пылью или мглою.
Явления - указаны атмосферные явления, наблюдавшиеся в срок или в последний час перед сроком; фигурными скобками обозначены явления, наблюдавшиеся между сроками (за 1-3 часа до срока); квадратными скобками обозначены град или гололедные отложения с указанием их диаметра в мм.
Облачность - указаны через наклонную черту общая и нижняя облачность в баллах и высота нижней границы облаков в метрах; квадратными скобками обозначены формы облаков: Ci - перистые, Cs - перисто-слоистые, Cc - перисто-кучевые, Ac - высококучевые, As - высокослоистые, Sc - слоисто-кучевые, Ns - слоисто-дождевые, Cu - кучевые, Cb - кучево-дождевые. Подробнее классификацию облаков см. в Атласе облаков (PDF).
T - Температура воздуха - температура, измеренная на высоте 2 м над землей.
Td - Температура точки росы - температура, при понижении до которой содержащийся в воздухе водяной пар достигнет насыщения.
f - Относительная влажность воздуха - влажноcть воздуха, измеренная на высоте 2 м над землей.
Te - Эффективная температура - температура, которую ощущает одетый по сезону человек в тени. Характеристика душности погоды. При расчете учитывается влияние влажности воздуха и скорости ветра на теплоощущения человека.
Tes - Эффективная температура на солнце - температура, которую ощущает человек, с поправкой на солнечный нагрев. Характеристика знойности погоды. Зависит от высоты солнца над горизонтом, облачности и скорости ветра. Ночью, в пасмурную погоду, а также при ветре 12 м/с и более поправка равна нулю.
P - Атмосферное давление - приведенное к уровню моря атмосферное давление.
Po - Атмосферное давление - измеренное на уровне метеостанции атмосферное давление.
Tmin - Минимальная температура - минимум температуры воздуха на высоте 2 м над землей.
Tmax - Максимальная температура - максимум температуры воздуха на высоте 2 м над землей.
R - Количество осадков - Количество выпавших осадков за период времени, мм. При наведении курсора мыши на число - период времени, за который выпало указанное количество осадков.
R24 - Количество осадков - Количество выпавших осадков за 24 часа, мм.
S - Снежный покров - Высота снежного покрова, см. При наведении курсора мыши на число - состояние снежного покрова и степень покрытия местности в баллах.